Regional Weather Roundup
Issued by NWS

Home | Current Version | Previous Version | Graphics & Text | Print | Product List | Glossary On
Versions: 1 2 3 4 5 6 7 8 9 10 11 12 13 14 15 16 17 18 19 20 21 22 23 24 25 26 27 28 29 30 31 32 33 34 35 36 37 38 39 40 41 42 43 44 45 46 47 48 49 50
000
ASUS45 KABQ 250401
RWRNM
NEW MEXICO REGIONAL WEATHER ROUNDUP
NATIONAL WEATHER SERVICE ALBUQUERQUE NM
900 PM MST FRI NOV 24 2017

NOTE: "FAIR" MEANS FEW OR NO CLOUDS BELOW 12,000 FEET AGL WITH NO
       SIGNIFICANT WEATHER OR OBSTRUCTIONS TO VISION.

      THIS PRODUCT IS RELEASED AS TWO VERSIONS.  ONE VERSION NEAR
      THE TOP OF THE HOUR CONTAINING PRELIMINARY DATA FROM ALBUQUERQUE
      AND OTHER STATIONS.  A FINAL VERSION WITH ADDITIONAL DATA IS
      ISSUED ABOUT 10 MINUTES AFTER THE HOUR.

NMZ501-503-504-510>518-250500-
NORTHWEST PLATEAU/NORTHCENTRAL MOUNTAINS

CITY           SKY/WX    TMP DP  RH WIND       PRES   REMARKS
FARMINGTON     FAIR      50  27  40 CALM      30.09R
LOS ALAMOS     FAIR      53  14  21 N7        30.17R
SANTA FE       FAIR      46  21  37 N13       30.10R
TAOS           FAIR      39  18  42 NW10      30.18  WCI  32
ANGEL FIRE     FAIR      31  19  60 S5        30.22S WCI  27

$$
NMZ402-403-502-505>509-250500-
WESTCENTRAL MOUNTAINS/SOUTHWEST MOUNTAINS

CITY           SKY/WX    TMP DP  RH WIND       PRES   REMARKS
GALLUP         FAIR      37  11  34 S6        30.17R WCI  32
GRANTS         FAIR      39  11  31 N3        30.18R
SILVER CITY    FAIR      60  22  23 NW16      30.10R

$$
NMZ407-409-411-412-250500-
SOUTHERN DESERTS

CITY           SKY/WX    TMP DP  RH WIND       PRES   REMARKS
DEMING         FAIR      61  24  24 S7        30.04R
LAS CRUCES     FAIR      58  23  26 W10       30.03R
ALAMOGORDO     FAIR      55  23  28 NW3       30.02R
T OR C         FAIR     N/A N/A N/A NW8       30.04R

$$
NMZ519>523-250500-
CENTRAL VALLEYS/CENTRAL HIGHLANDS

CITY           SKY/WX    TMP DP  RH WIND       PRES   REMARKS
ALBUQUERQUE    FAIR      51  24  34 SE5       30.08R
DOUBLE EAGLE   CLEAR     41  23  48 W6        30.11R
MORIARTY ARPT  FAIR      48  21  34 S7        30.11R
CLINES CORNERS FAIR      46  17  31 W10       30.14R
BELEN          FAIR      46  22  40 CALM      30.08R
SOCORRO        NOT AVBL

$$
NMZ524>526-539-540-250500-
SOUTHCENTRAL MOUNTAINS

CITY           SKY/WX    TMP DP  RH WIND       PRES   REMARKS
RUIDOSO        FAIR      54  16  22 NW5       30.14R

$$
NMZ527>531-250500-
NORTHEAST HIGHLANDS/NORTHEAST PLAINS

CITY           SKY/WX    TMP DP  RH WIND       PRES   REMARKS
LAS VEGAS      FAIR      50  17  27 N15       30.11R
RATON          FAIR      52  24  33 NE20      30.09R
CLAYTON        FAIR      51  32  48 N20       30.04R

$$
NMZ532>537-250500-
EASTCENTRAL PLAINS

CITY           SKY/WX    TMP DP  RH WIND       PRES   REMARKS
SANTA ROSA     FAIR      56  24  29 NW7       29.97R
TUCUMCARI      FAIR      66  22  18 N18G32    29.90R
CANNON AFB     FAIR      62  26  26 NW17      29.89R
CLOVIS AIRPORT NOT AVBL

$$
NMZ028-029-538-250500-
SOUTHEAST PLAINS

CITY           SKY/WX    TMP DP  RH WIND       PRES   REMARKS
ROSWELL        FAIR      61  24  24 W10       29.91R
ARTESIA        FAIR      61  25  25 W13       29.90R
CARLSBAD       FAIR      66  28  24 W10       29.87R
HOBBS          FAIR      61  28  29 W13       29.88S


$$




USA.gov is the U.S. government's official web portal to all federal, state and local government web resources and services.